Location: Aalen
(48.8330°N, 10.1000°E)
Time: 20:30:34
(UTC+02:00)

S-56A Canister/Altair - Pass Details

Date: 05 August 2021
Orbit: 632 x 2500 km, 38.9° (Epoch: 19 September)

Event Time Altitude Azimuth Distance (km) Brightness Sun altitude
Rises 16:57:47 0° 254° (WSW) 5,452 12.9 36.6°
Reaches altitude 10° 17:01:07 10° 251° (WSW) 4,647 12.9 36.1°
Maximum altitude 17:14:19 57° 178° (S) 2,787 10.9 34.0°
Drops below altitude 10° 17:28:45 10° 106° (ESE) 5,044 11.3 31.7°
Sets 17:32:33 0° 103° (ESE) 5,930 11.6 31.1°
